Wind_Speed
11 11 12 13 13 14 15 15 16 16 17 17 19 21 23 24 25 25 27 27 27 28 28 28 29 28 27 27 26 24 24 23 22 21 20 19 19 18 17 16 17 19
11 11 12 13 14 15 15 15 16 16 17 18 20 23 24 25 25 25 26 27 27 27 28 29 29 28 27 26 25 24 23 23 21 20 18 18 17 17 16 16 17 19
11 12 12 13 14 14 15 15 15 16 17 19 21 23 25 25 25 25 26 26 26 27 28 29 29 28 26 25 24 24 24 23 22 20 17 16 16 16 15 15 16 18
11 11 12 13 13 14 14 14 15 17 18 19 22 24 25 25 25 25 26 26 26 26 27 29 28 27 25 24 23 23 23 22 22 21 18 16 15 15 16 16 16 17
11 11 12 13 13 13 13 14 16 17 18 20 22 24 24 25 25 26 26 26 25 26 27 28 28 27 24 24 24 23 22 21 21 21 20 17 16 16 17 18 18 18
11 11 12 13 13 13 13 14 16 17 19 20 22 23 24 24 25 26 26 26 25 26 26 27 27 26 24 24 25 24 22 21 20 20 20 19 18 18 18 19 19 19
11 12 12 13 13 12 13 15 16 18 19 20 22 23 23 25 26 26 26 26 26 26 26 26 26 25 24 24 24 24 22 20 19 19 19 19 19 19 18 18 18 20
11 12 12 12 12 13 14 15 17 18 19 20 22 23 23 25 25 26 26 26 26 26 26 26 26 25 24 24 23 23 21 20 19 18 18 19 19 19 19 18 19 20
11 11 12 12 13 13 15 16 17 18 19 20 21 22 23 24 25 25 25 26 26 27 27 26 25 24 24 23 22 22 21 19 19 18 18 18 19 20 20 20 19 20
11 11 12 12 13 14 15 16 17 18 19 20 21 22 23 24 24 25 25 26 26 26 26 25 24 24 23 23 23 22 20 19 18 18 18 18 19 19 20 20 20 20
10 11 11 12 13 14 15 16 17 17 19 20 21 22 23 23 24 24 25 26 26 26 25 25 24 23 23 23 23 22 21 19 18 17 18 18 19 19 20 20 20 20
10 11 11 13 13 14 15 15 16 17 19 20 21 21 22 23 24 24 25 26 26 26 26 26 25 23 23 22 22 22 21 20 18 17 17 18 18 19 20 20 20 20
10 11 11 12 13 14 15 16 17 18 19 19 20 21 22 23 24 24 25 26 26 26 26 26 25 24 23 22 21 21 21 20 19 18 17 17 18 18 19 20 21 21
10 10 11 12 13 14 15 16 17 18 18 19 20 21 21 23 24 25 25 26 25 25 25 24 24 23 23 22 22 21 21 21 20 20 19 18 17 17 18 19 20 22
10 10 11 12 13 14 15 16 17 18 19 19 20 21 22 23 24 25 26 26 25 24 24 23 22 21 21 21 21 21 21 20 20 20 20 20 19 18 18 18 19 20
9 9 11 12 14 15 16 16 17 17 18 19 20 21 22 23 24 25 25 25 24 23 23 22 21 21 20 20 20 19 19 19 19 19 19 19 19 19 18 18 18 19
8 9 11 13 14 15 16 16 17 17 18 19 20 20 21 22 23 24 24 24 23 22 22 21 20 20 19 18 17 17 17 16 17 17 18 17 17 17 17 17 17 18
9 10 11 13 14 15 16 16 16 17 17 18 19 20 21 22 22 22 22 22 22 22 22 21 20 20 19 17 16 16 16 16 16 16 17 17 17 17 16 16 16 16
9 10 11 13 14 14 15 15 16 16 17 17 18 19 20 21 21 21 20 20 21 20 20 20 20 19 19 18 17 17 17 17 17 17 17 18 18 17 16 16 16 15
9 10 11 12 13 14 14 14 15 15 16 17 18 19 19 19 19 19 19 19 19 19 19 18 18 18 18 18 18 18 17 17 18 18 18 19 18 18 17 17 16 16
9 10 11 12 12 13 13 13 14 14 16 17 18 18 17 17 17 17 17 17 17 17 18 18 17 17 17 17 17 17 17 17 17 17 18 18 19 19 18 18 18 18
9 10 10 11 11 12 12 13 13 14 15 16 16 16 15 15 15 16 16 16 16 17 17 17 17 17 17 17 17 17 16 16 16 16 16 16 17 18 18 18 18 18
9 9 9 10 10 11 12 13 13 13 14 14 14 14 14 15 15 15 15 15 16 16 16 16 16 16 16 16 16 16 16 16 15 15 15 15 16 17 17 18 18 18
8 8 8 9 9 10 11 12 12 12 12 12 13 13 13 14 14 14 15 15 15 15 14 15 15 15 15 15 15 15 16 16 16 16 16 16 16 17 17 18 18 18
6 6 7 8 9 9 10 10 10 11 11 11 12 12 12 13 13 13 13 13 13 13 14 15 15 15 15 15 16 16 17 17 18 18 18 18 18 18 18 19 20 20
5 6 6 7 7 7 8 8 9 10 10 10 11 11 11 11 11 12 12 13 13 14 15 16 16 16 16 17 18 18 19 19 19 19 19 19 19 20 20 20 20 20
Wind_Direction
294 294 297 302 306 312 316 317 315 316 319 322 325 328 331 333 333 332 333 334 337 340 341 341 341 341 341 339 337 337 337 333 326 321 322 323 321 318 312 304 294 288
291 292 298 304 310 315 316 315 313 314 319 324 327 329 331 332 333 335 336 337 339 341 342 343 343 343 342 341 341 341 342 340 335 328 328 329 325 318 312 305 299 294
285 291 298 305 310 314 314 312 311 315 321 325 326 328 330 331 334 336 337 338 340 342 343 344 345 345 344 344 344 343 343 343 339 333 331 335 333 324 316 308 303 298
283 291 298 304 310 312 312 311 312 316 321 323 324 325 328 331 335 337 337 338 340 341 342 344 346 347 346 346 346 344 342 343 343 339 335 335 335 332 329 323 316 308
285 292 298 304 309 311 310 310 312 315 318 320 321 324 328 331 335 336 336 338 338 339 341 343 346 347 347 345 345 344 343 344 344 342 340 340 338 336 337 335 331 326
287 293 299 305 309 309 309 309 311 312 314 317 320 323 327 331 333 334 336 337 336 337 340 342 345 347 347 344 343 343 344 346 346 344 344 346 347 345 343 340 338 338
287 293 299 304 307 308 307 307 309 310 312 316 319 323 327 330 331 333 335 336 335 336 339 342 344 346 347 345 343 343 344 347 350 348 346 348 351 352 350 346 343 342
286 293 299 303 306 307 305 305 307 309 312 316 319 323 327 329 330 332 334 335 336 337 339 342 343 345 347 346 344 344 344 346 349 349 348 350 352 354 353 351 347 343
285 291 297 303 306 306 305 305 306 308 312 316 319 323 325 328 330 333 334 336 338 339 340 342 342 343 345 344 344 345 345 344 344 345 347 350 352 353 354 354 351 348
283 290 298 304 305 305 304 304 306 309 313 316 319 322 325 328 331 333 334 337 339 340 340 342 343 342 342 341 343 345 345 343 342 341 343 347 350 351 352 353 352 352
283 292 300 303 303 304 303 304 307 311 314 316 318 321 325 328 330 332 334 336 337 336 337 340 342 341 340 340 343 344 342 340 338 338 339 342 347 349 349 350 350 351
285 292 298 300 301 303 305 308 311 313 314 315 317 321 324 327 329 332 333 333 334 334 334 338 340 340 339 341 343 341 337 335 333 333 334 336 341 344 345 346 347 347
283 289 294 298 302 305 308 311 311 312 313 314 316 320 323 325 328 331 332 332 333 334 334 337 339 340 341 342 342 338 334 332 333 333 334 335 337 339 339 341 342 343
279 287 295 301 306 308 310 310 310 311 311 313 316 318 320 323 326 329 331 332 334 336 336 338 340 342 343 343 341 339 337 336 337 338 338 337 335 334 333 334 337 339
279 290 299 304 307 309 309 308 309 311 311 313 315 317 319 322 325 328 330 332 335 337 338 339 341 343 343 342 343 344 345 344 344 342 339 337 335 332 330 329 330 332
282 293 299 303 306 308 308 309 310 311 312 313 315 317 320 323 325 327 329 331 334 335 337 339 341 341 343 345 347 348 348 347 346 345 342 340 339 336 331 327 325 327
283 291 298 303 306 308 309 310 311 312 312 313 315 318 321 324 326 327 328 330 332 334 337 340 341 343 346 349 349 347 344 342 340 340 341 341 341 340 335 331 327 328
279 290 297 302 305 309 310 310 311 312 313 314 317 321 323 324 326 327 328 330 332 336 339 341 343 347 351 352 351 348 346 344 340 337 337 339 341 342 340 337 331 329
277 289 297 302 305 308 309 310 311 313 315 317 321 323 324 325 327 329 330 332 335 338 340 342 346 350 352 353 353 352 351 350 348 344 343 346 347 347 346 343 337 331
276 288 296 301 305 307 308 310 312 315 317 320 323 324 325 328 330 331 333 336 338 340 341 344 348 349 350 352 353 353 353 351 351 350 349 349 350 349 349 346 343 339
276 289 297 301 304 306 309 311 313 316 320 321 324 326 329 331 332 334 337 339 339 341 345 349 350 350 351 352 353 353 353 352 351 350 348 346 345 344 343 341 341 341
281 292 299 302 305 307 308 311 314 318 322 324 326 329 331 333 337 339 340 341 343 347 351 352 352 353 353 353 353 353 352 351 350 347 344 341 339 337 336 335 336 336
287 295 299 302 305 307 309 313 317 321 325 328 331 334 337 339 340 340 340 343 347 351 352 353 354 355 354 352 351 350 349 348 346 343 341 338 336 334 333 332 333 333
290 295 299 301 304 308 312 316 322 327 331 334 336 338 340 338 337 338 342 347 351 352 353 357 359 359 357 356 356 356 355 354 353 352 351 347 343 340 338 338 338 337
286 289 295 300 304 310 317 323 330 334 334 336 337 338 336 335 338 345 352 357 360 3 8 11 11 10 11 12 13 13 12 11 10 9 5 2 1 359 357 354 352 348
278 287 295 302 310 319 329 334 335 334 332 334 336 337 339 347 358 7 12 17 22 25 27 26 25 25 26 26 26 25 24 22 21 18 15 15 15 13 9 5 0 358
Height
3154 3153 3153 3152 3151 3150 3149 3148 3147 3146 3145 3144 3143 3141 3140 3138 3137 3135 3133 3130 3128 3126 3123 3121 3118 3116 3113 3111 3108 3106 3103 3101 3099 3097 3095 3093 3092 3091 3090 3089 3088 3088
3153 3152 3151 3151 3150 3149 3147 3147 3146 3145 3144 3143 3141 3140 3138 3137 3135 3133 3131 3129 3127 3124 3122 3120 3117 3114 3112 3109 3107 3105 3102 3100 3098 3096 3094 3092 3091 3090 3088 3087 3087 3086
3151 3151 3150 3149 3148 3147 3146 3145 3144 3144 3143 3141 3140 3139 3137 3136 3134 3132 3129 3127 3126 3123 3121 3119 3116 3113 3111 3108 3106 3103 3101 3099 3098 3095 3093 3092 3090 3089 3088 3086 3085 3085
3150 3150 3149 3148 3147 3146 3145 3144 3143 3142 3141 3140 3139 3138 3136 3134 3132 3130 3128 3126 3125 3123 3120 3118 3115 3112 3109 3107 3105 3103 3101 3099 3097 3095 3093 3091 3090 3088 3087 3086 3085 3083
3149 3148 3147 3146 3145 3145 3144 3143 3142 3141 3140 3140 3138 3137 3135 3133 3131 3129 3127 3125 3123 3122 3119 3117 3114 3111 3109 3106 3105 3102 3100 3098 3096 3095 3093 3091 3089 3088 3087 3085 3084 3082
3147 3146 3146 3145 3144 3143 3143 3142 3141 3141 3140 3139 3137 3136 3134 3132 3130 3128 3126 3124 3122 3120 3118 3116 3113 3111 3108 3106 3104 3102 3100 3098 3096 3094 3092 3090 3088 3087 3086 3084 3083 3081
3145 3145 3144 3143 3143 3142 3142 3141 3141 3140 3139 3138 3136 3134 3133 3131 3129 3127 3125 3123 3121 3119 3117 3115 3112 3110 3107 3105 3103 3101 3099 3097 3096 3094 3092 3090 3088 3086 3085 3083 3082 3080
3144 3143 3143 3142 3142 3141 3141 3140 3139 3139 3138 3136 3135 3133 3131 3130 3128 3126 3124 3122 3120 3118 3115 3113 3111 3109 3107 3104 3102 3100 3099 3097 3095 3094 3092 3090 3088 3086 3085 3083 3082 3080
3142 3142 3141 3141 3141 3140 3140 3139 3138 3137 3136 3135 3133 3132 3130 3129 3127 3125 3123 3121 3119 3116 3114 3112 3110 3108 3106 3104 3102 3100 3098 3096 3094 3093 3091 3090 3088 3086 3085 3083 3082 3080
3141 3140 3140 3140 3140 3139 3139 3138 3137 3136 3135 3134 3132 3131 3129 3127 3126 3124 3122 3120 3118 3115 3113 3111 3109 3107 3105 3103 3101 3099 3097 3096 3094 3092 3091 3089 3088 3086 3085 3083 3081 3080
3139 3139 3139 3139 3139 3138 3138 3137 3136 3135 3134 3132 3131 3129 3128 3126 3124 3122 3121 3119 3117 3115 3113 3111 3109 3106 3104 3103 3100 3098 3096 3095 3093 3092 3090 3089 3087 3086 3085 3083 3081 3080
3138 3138 3138 3138 3137 3137 3136 3135 3134 3133 3132 3131 3130 3128 3127 3125 3123 3121 3119 3117 3115 3113 3111 3109 3107 3105 3103 3101 3100 3097 3095 3094 3092 3091 3089 3088 3087 3086 3084 3083 3081 3080
3137 3137 3137 3137 3136 3135 3135 3134 3133 3132 3131 3130 3128 3127 3126 3124 3122 3120 3118 3116 3114 3112 3110 3108 3106 3104 3102 3100 3098 3097 3095 3093 3091 3090 3088 3087 3086 3085 3084 3082 3081 3079
3136 3136 3135 3135 3134 3134 3133 3132 3131 3131 3129 3128 3127 3126 3124 3123 3121 3119 3117 3115 3113 3111 3109 3107 3105 3103 3101 3099 3097 3096 3094 3092 3090 3089 3088 3087 3085 3084 3083 3082 3081 3079
3135 3134 3134 3133 3133 3132 3132 3131 3130 3129 3128 3127 3126 3125 3123 3121 3119 3118 3115 3114 3112 3110 3108 3106 3105 3103 3101 3099 3097 3095 3093 3092 3090 3089 3087 3086 3085 3083 3082 3081 3080 3079
3133 3133 3132 3132 3131 3131 3130 3129 3129 3128 3127 3126 3125 3123 3122 3120 3118 3116 3114 3112 3111 3109 3108 3106 3104 3102 3100 3098 3096 3095 3093 3092 3090 3089 3087 3086 3084 3083 3082 3080 3079 3078
3131 3131 3131 3130 3130 3129 3128 3128 3127 3126 3125 3124 3123 3122 3120 3118 3117 3115 3113 3112 3110 3108 3107 3105 3104 3102 3100 3098 3096 3095 3093 3092 3090 3089 3087 3086 3085 3083 3081 3080 3079 3078
3130 3130 3129 3129 3128 3127 3127 3126 3125 3125 3124 3123 3121 3120 3119 3117 3116 3114 3112 3111 3109 3107 3106 3104 3103 3101 3099 3098 3096 3095 3093 3091 3090 3089 3087 3086 3084 3083 3081 3080 3078 3077
3128 3128 3128 3127 3127 3126 3125 3125 3124 3123 3122 3121 3120 3119 3117 3116 3114 3113 3111 3110 3108 3107 3105 3104 3102 3101 3099 3098 3096 3095 3093 3091 3090 3088 3087 3085 3084 3083 3081 3080 3078 3077
3127 3126 3126 3126 3125 3124 3124 3123 3123 3122 3121 3120 3119 3117 3116 3115 3113 3112 3111 3109 3108 3106 3105 3103 3102 3100 3099 3098 3096 3094 3093 3091 3089 3088 3086 3084 3083 3082 3081 3079 3078 3076
3125 3125 3124 3124 3124 3123 3123 3122 3121 3121 3120 3119 3117 3116 3115 3114 3113 3111 3110 3109 3107 3106 3104 3103 3101 3100 3099 3097 3096 3094 3093 3091 3089 3087 3085 3084 3082 3081 3079 3078 3077 3075
3123 3123 3123 3123 3122 3122 3122 3121 3120 3119 3118 3117 3116 3115 3114 3113 3112 3111 3109 3108 3107 3105 3103 3102 3101 3099 3098 3096 3095 3093 3092 3090 3089 3087 3085 3083 3082 3080 3078 3077 3076 3074
3122 3121 3121 3121 3121 3121 3121 3120 3119 3118 3117 3117 3116 3115 3113 3112 3111 3110 3108 3107 3106 3104 3103 3102 3101 3099 3098 3096 3095 3093 3091 3090 3088 3087 3085 3083 3081 3080 3078 3076 3075 3074
3120 3120 3120 3120 3120 3120 3119 3119 3118 3117 3116 3116 3115 3114 3113 3111 3110 3109 3108 3106 3105 3104 3103 3102 3100 3099 3098 3096 3094 3093 3091 3090 3088 3086 3085 3083 3081 3080 3078 3076 3074 3073
3119 3119 3120 3119 3119 3119 3118 3118 3117 3116 3116 3115 3114 3113 3112 3111 3110 3108 3107 3106 3105 3104 3103 3101 3100 3099 3098 3096 3095 3093 3092 3090 3088 3086 3085 3083 3081 3080 3078 3076 3074 3072
3118 3118 3118 3118 3118 3118 3117 3117 3116 3116 3115 3114 3113 3112 3111 3110 3109 3108 3107 3106 3105 3104 3103 3102 3101 3100 3098 3097 3096 3094 3093 3091 3089 3088 3086 3084 3082 3080 3078 3076 3074 3072